Погода в Ибрагимове

Россия / Оренбургская область     51°30′26″N   57°26′14″E
темп.,
°C
ветер,
м/с
пор.,
м/с
влажн.,
%
обл.,
%
осадки,
мм/ч
давл.,
гПа
погр.,
м
17 мая, пн
пн1723:00+20в22393 0.0 102111
02:00+19в11363 0.0 102111
05:00+17в21422 0.0 102211
08:00+21всв124640 0.0 102285
11:00+27юв22345 0.0 1022737
14:00+29ююз332999 0.0 10213160
17:00+20ююв81161100 0.0 1022321
20:00+20всв4863100 0.1 1021209
18 мая, вт
вт1823:00+17в22654 0.2 102012
02:00+16в22574 0.0 102019
05:00+15с016443 0.0 101910
08:00+19с125658 0.0 1018125
11:00+25всв23415 0.0 1017797
14:00+28юв23310 0.0 10162501
17:00+27сз433842 0.0 10151478
20:00+18св5870100 1.5 1015139
19 мая, ср
ср1923:00+19сз005247 1.5 101411
02:00+16ссв226898 0.0 101423
05:00+15всв916813 0.0 1015395
08:00+16всв1016810 0.1 1016637
11:00+20всв1012622 0.1 10171133
14:00+22всв910460 0.0 10171614
17:00+22в810450 0.0 10172028
20:00+18в611540 0.0 1018374
20 мая, чт
чт2023:00+15в513570 0.0 1020329
02:00+14в615520 0.0 1021454
05:00+12в715570 0.0 1021373
08:00+14в713610 0.0 1022755
11:00+19вюв912440 0.0 10211321
14:00+21вюв9113579 0.0 10211690
17:00+21юв71040100 0.0 10201699
20:00+18юв6124728 0.0 1020342
21 мая, пт
пт2123:00+16вюв7154314 0.0 1019366
02:00+15вюв6154938 0.0 1019318
05:00+14вюв7154866 0.0 1019326
08:00+15вюв61256100 0.0 1020344
11:00+16вюв5105875 0.0 1020329
14:00+23ююв6940100 0.0 10191517
17:00+23ююв5845100 0.0 10191439
20:00+20в225784 0.0 101911